Zurück zum Katalog

DELTA 1 DEB

AktivSSO
NORAD 12203·DEBRIS·🇺🇸 United States

Gestartet Mar 5, 1978 von Vandenberg Space Force Base

Loading…

Nächste Überflüge (nächste 24 Stunden)

TLE

AktuellSource: Space-Track

Epoche: Sep 14, 2026, 07:27 UTC

1 12203U 78026AU  26257.31076568  .00000476  00000-0  16233-3 0  9994
2 12203  98.6266 283.6533 0059078 284.6724 136.5674 14.40047967376986

Verfolge DELTA 1 DEB in Echtzeit mit AllMySat

Download on the App Store